Date String (YYYY-MM-DD hh:mm:ss) UTC,Instrument flags,Ambient pressure (hPa),Sample flow (lpm),Bypass flow (lpm),Sample temperature (°C),Ambient temperature (°C),ASC tube jacket temperature (°C),LED temperature (°C),Box temperature (°C),Sample RH (%),Span deviation,Mass concentration (μg/m³),Mass concentration (μg/m³),Mass concentration (μg/m³)
DateTimeUTC,F1_M11,P_M11,Q1_M11,Q2_M11,T1_M11,T2_M11,T3_M11,T4_M11,T5_M11,U1_M11,ZSPAN_M11,X2_M11,X0_M11,X1_M11
2023-03-09 16:00:00,,0824.8,5.00,0.00,22.0,21.7,00.0,30.8,23.9,07.9,0000.0,0001.47,0007.06,0000.74
2023-03-09 16:01:00,,0824.5,4.98,0.00,22.2,23.2,00.0,30.8,24.3,07.8,0000.0,0001.44,0006.97,0000.74
2023-03-09 16:02:00,,0824.8,4.99,0.00,22.3,23.0,00.0,30.9,24.3,07.9,0000.0,0001.38,0006.68,0000.74
2023-03-09 16:03:00,,0824.8,4.98,0.00,22.3,22.4,00.0,30.9,24.2,07.9,0000.0,0001.32,0006.07,0000.74
2023-03-09 16:04:00,,0824.7,4.99,0.00,22.3,21.8,00.0,30.9,24.0,08.0,0000.0,0001.27,0005.61,0000.73
2023-03-09 16:05:00,,0824.4,5.00,0.00,22.3,21.4,00.0,30.9,23.9,07.9,0000.0,0001.21,0004.78,0000.73
2023-03-09 16:06:00,,0824.6,5.00,0.00,22.2,21.1,00.0,30.9,23.9,08.0,0000.0,0001.25,0004.81,0000.74
2023-03-09 16:07:00,,0824.7,4.99,0.00,22.2,20.9,00.0,30.9,23.8,07.7,0000.0,0001.29,0004.99,0000.73
2023-03-09 16:08:00,,0824.6,5.02,0.00,22.2,20.7,00.0,30.9,23.7,07.8,0000.0,0001.31,0005.00,0000.75
2023-03-09 16:09:00,,0824.7,5.02,0.00,22.1,20.5,00.0,30.9,23.7,07.8,0000.0,0001.31,0005.14,0000.75
2023-03-09 16:10:00,,0824.6,5.01,0.00,22.1,20.4,00.0,30.9,23.6,07.9,0000.0,0001.36,0004.70,0000.75
2023-03-09 16:11:00,,0824.7,4.99,0.00,22.1,20.3,00.0,30.9,23.6,07.9,0000.0,0001.41,0004.85,0000.75
2023-03-09 16:12:00,,0824.6,5.00,0.00,22.0,20.2,00.0,30.9,23.5,07.8,0000.0,0001.37,0004.77,0000.74
2023-03-09 16:13:00,,0824.6,5.00,0.00,22.0,20.1,00.0,30.8,23.5,07.9,0000.0,0001.35,0004.28,0000.74
2023-03-09 16:14:00,,0824.9,5.00,0.00,22.0,21.0,00.0,30.8,23.7,07.9,0000.0,0001.38,0003.57,0000.74
2023-03-09 16:15:00,,0824.5,5.00,0.00,22.1,22.4,00.0,30.8,24.0,07.8,0000.0,0001.38,0003.61,0000.73
2023-03-09 16:16:00,,0824.4,4.98,0.00,22.3,22.9,00.0,30.9,24.3,07.6,0000.0,0001.40,0003.68,0000.74
2023-03-09 16:17:00,,0824.7,5.00,0.00,22.3,22.4,00.0,30.9,24.2,07.7,0000.0,0001.42,0004.09,0000.75
2023-03-09 16:18:00,,0824.7,4.97,0.00,22.3,21.8,00.0,30.9,24.0,07.7,0000.0,0001.43,0004.30,0000.76
2023-03-09 16:19:00,,0824.6,5.00,0.00,22.3,21.4,00.0,31.0,23.9,07.8,0000.0,0001.40,0004.22,0000.76
2023-03-09 16:20:00,,0824.7,4.99,0.00,22.2,21.1,00.0,30.9,23.8,08.0,0000.0,0001.40,0004.38,0000.75
2023-03-09 16:21:00,,0824.7,5.00,0.00,22.2,20.8,00.0,30.9,23.8,08.1,0000.0,0001.33,0004.88,0000.76
2023-03-09 16:22:00,,0824.8,5.02,0.00,22.2,20.6,00.0,30.9,23.7,08.1,0000.0,0001.27,0004.72,0000.75
2023-03-09 16:23:00,,0824.8,4.99,0.00,22.1,20.5,00.0,30.9,23.6,08.1,0000.0,0001.25,0005.69,0000.75
2023-03-09 16:24:00,,0824.9,5.00,0.00,22.1,20.3,00.0,30.9,23.6,08.1,0000.0,0001.27,0006.23,0000.76
2023-03-09 16:25:00,,0824.9,5.02,0.00,22.0,20.2,00.0,30.9,23.6,08.3,0000.0,0001.26,0006.70,0000.77
2023-03-09 16:26:00,,0825.0,4.98,0.00,22.0,20.2,00.0,30.8,23.6,08.2,0000.0,0001.23,0007.62,0000.78
2023-03-09 16:27:00,,0825.1,5.00,0.00,21.9,20.1,00.0,30.8,23.6,07.9,0000.0,0001.20,0007.58,0000.77
2023-03-09 16:28:00,,0825.2,5.00,0.00,21.9,20.1,00.0,30.8,23.6,08.0,0000.0,0001.20,0007.28,0000.77
2023-03-09 16:29:00,,0825.1,5.01,0.00,22.0,21.0,00.0,30.8,23.7,08.0,0000.0,0001.18,0007.10,0000.76
2023-03-09 16:30:00,,0825.1,5.00,0.00,22.1,22.6,00.0,30.8,24.1,07.7,0000.0,0001.18,0007.47,0000.76
2023-03-09 16:31:00,,0825.2,5.03,0.00,22.3,23.5,00.0,30.8,24.4,07.6,0000.0,0001.18,0007.55,0000.77
2023-03-09 16:32:00,,0825.2,5.02,0.00,22.4,23.0,00.0,30.9,24.4,07.4,0000.0,0001.20,0006.89,0000.77
2023-03-09 16:33:00,,0825.1,5.00,0.00,22.4,22.4,00.0,30.9,24.2,07.5,0000.0,0001.22,0007.00,0000.77
2023-03-09 16:34:00,,0825.1,4.97,0.00,22.4,21.9,00.0,31.0,24.1,07.6,0000.0,0001.22,0005.92,0000.77
2023-03-09 16:35:00,,0825.2,4.99,0.00,22.3,21.5,00.0,31.0,24.0,07.4,0000.0,0001.21,0005.41,0000.76
2023-03-09 16:36:00,,0825.3,5.00,0.00,22.3,21.3,00.0,31.0,24.0,07.5,0000.0,0001.20,0004.77,0000.75
2023-03-09 16:37:00,,0825.2,5.00,0.00,22.3,21.0,00.0,31.0,23.9,07.4,0000.0,0001.21,0003.66,0000.75
2023-03-09 16:38:00,,0825.2,4.99,0.00,22.3,20.8,00.0,31.0,23.9,07.4,0000.0,0001.21,0003.66,0000.75
2023-03-09 16:39:00,,0825.2,5.01,0.00,22.2,20.7,00.0,31.0,23.9,07.3,0000.0,0001.21,0003.67,0000.75
2023-03-09 16:40:00,,0825.2,5.00,0.00,22.2,20.6,00.0,31.0,23.8,07.2,0000.0,0001.22,0003.65,0000.75
2023-03-09 16:41:00,,0825.2,5.00,0.00,22.2,20.6,00.0,30.9,23.8,07.4,0000.0,0001.18,0003.53,0000.74
2023-03-09 16:42:00,,0825.3,5.00,0.00,22.2,20.5,00.0,30.9,23.8,07.3,0000.0,0001.17,0003.06,0000.73
2023-03-09 16:43:00,,0825.3,5.00,0.00,22.1,20.4,00.0,30.9,23.8,07.3,0000.0,0001.13,0002.08,0000.72
2023-03-09 16:44:00,,0825.3,4.99,0.00,22.1,20.4,00.0,30.9,23.7,07.4,0000.0,0001.12,0001.96,0000.73
2023-03-09 16:45:00,,0825.4,5.00,0.00,22.1,20.3,00.0,30.9,23.7,07.5,0000.0,0001.17,0002.00,0000.74
2023-03-09 16:46:00,,0825.3,5.00,0.00,22.0,20.3,00.0,30.8,23.7,07.3,0000.0,0001.21,0002.08,0000.74
2023-03-09 16:47:00,,0825.3,5.00,0.00,22.0,20.2,00.0,30.8,23.7,07.4,0000.0,0001.23,0002.11,0000.75
2023-03-09 16:48:00,,0825.4,5.00,0.00,22.0,20.3,00.0,30.8,23.6,07.6,0000.0,0001.22,0002.11,0000.75
2023-03-09 16:49:00,,0825.3,5.02,0.00,22.1,21.6,00.0,30.8,23.9,07.5,0000.0,0001.22,0002.05,0000.76
2023-03-09 16:50:00,,0825.4,5.00,0.00,22.2,22.9,00.0,30.8,24.3,07.4,0000.0,0001.22,0002.06,0000.76
2023-03-09 16:51:00,,0825.4,4.97,0.00,22.3,22.8,00.0,30.9,24.3,07.3,0000.0,0001.22,0002.05,0000.77
2023-03-09 16:52:00,,0825.5,5.01,0.00,22.3,22.2,00.0,30.9,24.2,07.4,0000.0,0001.22,0002.02,0000.77
2023-03-09 16:53:00,,0825.4,5.02,0.00,22.3,21.8,00.0,30.9,24.1,07.4,0000.0,0001.24,0002.06,0000.77
2023-03-09 16:54:00,,0825.4,5.00,0.00,22.3,21.4,00.0,30.9,24.0,07.4,0000.0,0001.28,0002.42,0000.78
2023-03-09 16:55:00,,0825.4,5.00,0.00,22.3,21.1,00.0,30.9,24.0,07.4,0000.0,0001.25,0002.53,0000.77
2023-03-09 16:56:00,,0825.3,4.99,0.00,22.2,20.9,00.0,30.9,23.9,07.5,0000.0,0001.20,0002.39,0000.75
2023-03-09 16:57:00,,0825.3,5.00,0.00,22.2,20.8,00.0,30.9,23.8,07.4,0000.0,0001.17,0002.34,0000.74
2023-03-09 16:58:00,,0825.4,5.00,0.00,22.2,20.6,00.0,30.9,23.8,07.4,0000.0,0001.14,0002.38,0000.73
2023-03-09 16:59:00,,0825.4,5.01,0.00,22.2,20.5,00.0,30.9,23.7,07.4,0000.0,0001.14,0002.42,0000.73
